Rogers City, MI

4:48 PM EDT on September 20, 2017 (GMT -0400)
Presque Isle County

Weather History for KPZQ - December, 2013

Change the Weather History Date:

Wednesday, December 4, 2013

  Actual Average (KAPN) Record (KAPN)
Temperature  
Mean Temperature 36 °F -  
Max Temperature 40 °F 33 °F 61 °F (1961)
Min Temperature 31 °F 19 °F 0 °F (1935)
Degree Days  
Heating Degree Days 30    
Moisture  
Dew Point 34 °F    
Average Humidity 98    
Maximum Humidity 100    
Minimum Humidity 93    
Precipitation  
Precipitation 0.00 in - - ()
Sea Level Pressure  
Sea Level Pressure 29.84 in    
Wind  
Wind Speed 13 mph (East)    
Max Wind Speed 18 mph    
Max Gust Speed 25 mph    
Visibility 2 miles    
Events Rain , Snow    
Averages and records for this station are not official NWS values.
T = Trace of Precipitation, MM = Missing Value Source: NWS Daily Summary

Daily Weather History Graph

Daily Weather History Graph

Search for Another Location

Airport or City:

Trip Planner

Search our weather history database for the weather conditions in past years. The results will help you decide how hot, cold, wet, or windy it might be!

Date:

Astronomy

Dec. 04, 2013 Rise Set
Actual Time 7:58 AM EST 4:52 PM EST
Civil Twilight 7:24 AM EST 5:26 PM EST
Nautical Twilight 6:47 AM EST 6:03 PM EST
Astronomical Twilight 6:11 AM EST 6:39 PM EST
Moon 9:23 AM EST (12/4) 7:04 PM EST (12/4)
Length of Visible Light 10h 01m
Length of Day
8h 54m
Waxing Crescent, 4% of the Moon is Illuminated
Dec 4
Waxing Crescent
Dec 9
First Quarter
Dec 17
Full
Dec 25
Last Quarter
Jan 1
New

Hourly Weather History & Observations

Time (EST) Temp. Windchill Dew Point Humidity Pressure Visibility Wind Dir Wind Speed Gust Speed Precip Events Conditions
12:15 AM 32.4 °F 23.0 °F 31.3 °F 96% 29.95 in 1.5 mi East 12.7 mph 18.4 mph N/A Snow Light Snow
12:35 AM 32.4 °F 23.0 °F 31.1 °F 95% 29.95 in 1.0 mi East 12.7 mph 17.3 mph N/A Snow Snow
12:55 AM 32.0 °F 23.0 °F 30.6 °F 94% 29.95 in 2.0 mi ESE 11.5 mph - N/A Snow Light Snow
1:14 AM 32.0 °F 22.5 °F 30.7 °F 95% 29.95 in 1.8 mi ESE 12.7 mph 16.1 mph N/A Snow Light Snow
1:35 AM 32.0 °F 23.6 °F 31.1 °F 96% 29.95 in 1.2 mi ESE 10.4 mph - N/A Snow Light Snow
1:55 AM 32.0 °F 23.6 °F 31.1 °F 96% 29.96 in 1.2 mi ESE 10.4 mph 16.1 mph N/A Snow Light Snow
2:14 AM 32.2 °F 23.8 °F 31.1 °F 96% 29.94 in 1.5 mi East 10.4 mph - N/A Snow Light Snow
2:35 AM 32.7 °F 23.4 °F 31.8 °F 96% 29.94 in 2.0 mi East 12.7 mph 16.1 mph N/A Snow Light Snow
2:55 AM 32.9 °F 23.2 °F 32.0 °F 96% 29.95 in 1.5 mi East 13.8 mph - N/A Snow Light Snow
3:14 AM 32.4 °F 21.7 °F 31.6 °F 97% 29.96 in 1.5 mi East 16.1 mph 21.9 mph N/A Snow Light Snow
3:35 AM 32.2 °F 22.3 °F 31.3 °F 96% 29.96 in 1.2 mi ENE 13.8 mph 20.7 mph N/A Snow Light Snow
3:55 AM 32.0 °F 22.5 °F 31.1 °F 96% 29.95 in 1.5 mi ENE 12.7 mph 21.9 mph N/A Snow Light Snow
4:14 AM 32.0 °F 22.1 °F 31.1 °F 96% 29.95 in 1.8 mi ENE 13.8 mph 19.6 mph N/A Snow Light Snow
4:35 AM 32.0 °F 22.5 °F 30.9 °F 96% 29.94 in 1.5 mi East 12.7 mph 23.0 mph N/A Snow Light Snow
4:54 AM 32.0 °F 21.2 °F 30.7 °F 95% 29.95 in 1.8 mi East 16.1 mph - N/A Snow Light Snow
5:15 AM 32.0 °F 22.1 °F 30.6 °F 94% 29.95 in 2.0 mi East 13.8 mph 21.9 mph N/A Snow Light Snow
5:35 AM 32.0 °F 23.0 °F 30.4 °F 94% 29.96 in 2.5 mi ENE 11.5 mph 20.7 mph N/A Snow Light Snow
5:54 AM 31.8 °F 22.3 °F 30.2 °F 94% 29.97 in 3.0 mi ENE 12.7 mph 17.3 mph N/A Snow Light Snow
6:15 AM 32.0 °F 23.0 °F 30.6 °F 94% 29.97 in 4.0 mi ENE 11.5 mph 19.6 mph N/A   Overcast
6:35 AM 32.0 °F 22.1 °F 30.6 °F 94% 29.97 in 2.0 mi ENE 13.8 mph 17.3 mph N/A Snow Light Snow
6:54 AM 32.0 °F 22.1 °F 30.2 °F 93% 29.95 in 2.0 mi ENE 13.8 mph 20.7 mph N/A Snow Light Snow
7:15 AM 31.8 °F 21.8 °F 30.2 °F 94% 29.96 in 4.0 mi ENE 13.8 mph 24.2 mph N/A Snow Light Snow
7:35 AM 32.0 °F 23.6 °F 30.2 °F 93% 29.95 in 5.0 mi ENE 10.4 mph 21.9 mph N/A   Overcast
7:54 AM 32.0 °F 22.1 °F 30.2 °F 93% 29.96 in 5.0 mi ENE 13.8 mph 19.6 mph N/A   Overcast
8:15 AM 32.0 °F 23.0 °F 30.2 °F 93% 29.97 in 5.0 mi ENE 11.5 mph 18.4 mph N/A   Overcast
8:35 AM 31.8 °F 21.4 °F 30.2 °F 94% 29.96 in 4.0 mi ENE 15.0 mph 18.4 mph N/A   Overcast
8:55 AM 32.0 °F 21.6 °F 30.7 °F 95% 29.96 in 3.0 mi ENE 15.0 mph 21.9 mph N/A   Overcast
9:15 AM 32.2 °F 22.3 °F 31.3 °F 96% 29.96 in 4.0 mi East 13.8 mph 20.7 mph N/A   Overcast
9:34 AM 32.5 °F 22.3 °F 31.6 °F 96% 29.95 in 4.0 mi East 15.0 mph 23.0 mph N/A   Overcast
9:55 AM - - - N/A% - - North - - N/A   Unknown
10:15 AM 32.0 °F 20.8 °F 32.0 °F 100% 29.94 in 5.0 mi East 17.3 mph - N/A   Overcast
10:34 AM 32.0 °F 21.6 °F 32.0 °F 100% 29.94 in 5.0 mi East 15.0 mph 21.9 mph N/A   Overcast
10:55 AM 32.4 °F 23.0 °F 32.0 °F 99% 29.94 in 5.0 mi East 12.7 mph 21.9 mph N/A   Overcast
11:15 AM 32.9 °F 23.7 °F 32.4 °F 98% 29.94 in 4.0 mi East 12.7 mph 21.9 mph N/A   Overcast
11:35 AM 33.1 °F 23.4 °F 32.9 °F 99% 29.93 in 2.5 mi East 13.8 mph 20.7 mph N/A   Overcast
11:55 AM 33.3 °F 24.6 °F 33.1 °F 99% 29.92 in 1.8 mi East 11.5 mph 18.4 mph N/A   Overcast
12:15 PM 34.0 °F 26.0 °F 33.8 °F 99% 29.91 in 1.2 mi East 10.4 mph 18.4 mph N/A Rain Light Rain
12:35 PM 34.7 °F 24.7 °F 34.7 °F 100% 29.89 in 1.2 mi East 16.1 mph 20.7 mph N/A   Overcast
12:55 PM 34.9 °F 24.6 °F 34.7 °F 99% 29.86 in 1.2 mi East 17.3 mph 24.2 mph N/A Snow Light Snow
1:15 PM 35.1 °F 25.2 °F 34.9 °F 99% 29.87 in 1.5 mi East 16.1 mph 21.9 mph N/A   Overcast
1:35 PM 35.2 °F 25.4 °F 35.1 °F 99% 29.85 in 1.8 mi East 16.1 mph 21.9 mph N/A Snow Light Snow
1:55 PM 35.6 °F 25.5 °F 35.6 °F 100% 29.84 in 2.0 mi East 17.3 mph 23.0 mph N/A   Overcast
2:14 PM 35.6 °F 26.2 °F 35.6 °F 100% 29.84 in 1.5 mi East 15.0 mph 20.7 mph N/A   Overcast
2:35 PM 36.0 °F 27.5 °F 36.0 °F 100% 29.84 in 1.2 mi East 12.7 mph 18.4 mph N/A   Overcast
2:55 PM 36.1 °F 28.2 °F 36.1 °F 100% 29.83 in 0.8 mi East 11.5 mph 18.4 mph N/A   Overcast
3:14 PM 36.3 °F 29.5 °F 36.3 °F 100% 29.82 in 0.8 mi East 9.2 mph - N/A   Overcast
3:35 PM 36.7 °F 29.4 °F 36.7 °F 100% 29.82 in 1.2 mi East 10.4 mph - N/A   Overcast
3:55 PM 36.7 °F 29.4 °F 36.7 °F 100% 29.82 in 1.2 mi East 10.4 mph - N/A   Overcast
4:15 PM 36.9 °F 30.1 °F 36.9 °F 100% 29.82 in 1.0 mi ESE 9.2 mph - N/A   Overcast
4:35 PM 36.9 °F 29.6 °F 36.9 °F 100% 29.80 in 0.8 mi East 10.4 mph - N/A   Overcast
4:55 PM 37.0 °F 29.3 °F 37.0 °F 100% 29.79 in 1.2 mi East 11.5 mph - N/A   Overcast
5:15 PM 37.2 °F 30.0 °F 37.2 °F 100% 29.79 in 1.0 mi ESE 10.4 mph 20.7 mph N/A   Overcast
5:35 PM 37.0 °F 29.8 °F 37.0 °F 100% 29.77 in 0.8 mi East 10.4 mph - N/A   Overcast
5:55 PM 37.4 °F 29.3 °F 37.4 °F 100% 29.77 in 1.0 mi East 12.7 mph - N/A   Overcast
6:15 PM 37.4 °F 30.3 °F 37.4 °F 100% 29.75 in 1.5 mi East 10.4 mph - N/A   Overcast
6:35 PM 37.4 °F 30.8 °F 37.4 °F 100% 29.75 in 1.8 mi ESE 9.2 mph - N/A   Overcast
6:54 PM 37.6 °F 29.1 °F 37.6 °F 100% 29.74 in 2.0 mi ESE 13.8 mph 19.6 mph N/A   Overcast
7:15 PM 37.6 °F 29.6 °F 37.6 °F 100% 29.72 in 2.0 mi ESE 12.7 mph 19.6 mph N/A   Overcast
7:35 PM 37.9 °F 30.0 °F 37.9 °F 100% 29.71 in 2.0 mi ESE 12.7 mph 19.6 mph N/A Rain Light Rain
7:55 PM 38.3 °F 30.1 °F 38.3 °F 100% 29.68 in 2.5 mi ESE 13.8 mph - N/A Rain Light Rain
8:15 PM 38.5 °F 29.6 °F 38.5 °F 100% 29.65 in 2.5 mi ESE 16.1 mph - N/A Rain Light Rain
8:35 PM 38.5 °F 30.3 °F 38.5 °F 100% 29.65 in 2.5 mi ESE 13.8 mph 20.7 mph N/A Rain Rain
8:54 PM 38.8 °F 30.4 °F 38.8 °F 100% 29.62 in 2.5 mi ESE 15.0 mph 25.3 mph N/A Rain Light Rain
9:15 PM 39.2 °F 30.8 °F 38.8 °F 99% 29.60 in 3.0 mi SE 15.0 mph 23.0 mph N/A Rain Light Rain
9:34 PM 38.8 °F 31.2 °F 38.7 °F 99% 29.58 in 2.0 mi SE 12.7 mph 18.4 mph N/A Rain Heavy Rain
9:55 PM 39.4 °F 31.1 °F 39.2 °F 99% 29.57 in 2.5 mi SE 15.0 mph 23.0 mph N/A Rain Light Rain
10:15 PM 39.7 °F 31.2 °F 39.6 °F 99% 29.55 in 2.0 mi SE 16.1 mph - N/A   Drizzle
10:34 PM 40.1 °F 31.0 °F 39.7 °F 99% 29.54 in 2.5 mi SE 18.4 mph 24.2 mph N/A Rain Rain
10:55 PM 40.1 °F 31.3 °F 39.7 °F 99% 29.52 in 4.0 mi SSE 17.3 mph 20.7 mph N/A   Overcast
11:14 PM 40.1 °F 31.3 °F 39.7 °F 99% 29.51 in 3.0 mi SE 17.3 mph 24.2 mph N/A   Overcast
11:35 PM 40.1 °F 32.7 °F 39.7 °F 99% 29.49 in 1.8 mi SE 12.7 mph 17.3 mph N/A Rain Light Rain
11:55 PM 40.1 °F 32.4 °F 40.1 °F 100% 29.49 in 1.2 mi SE 13.8 mph 17.3 mph N/A   Overcast